User: anonymous   Login
Location: Columbia
(38.9520°N, 92.3340°W)
Time: 06:57:26
(UTC-05:00)
Language:

CZ-2C R/B - Orbit

View from above orbital plane
View from above orbital plane
View from above satellite
View from above satellite

Ground track
Ground track

The orbit data is extracted from the following two-line orbital elements,

1 28480U 04046B   15181.23076478  .00000043  00000-0  31544-4 0  9997
2 28480 098.1422 314.2335 0142243 183.6602 238.6941 14.25511798551943
Epoch (UTC): 30 June 2015 05:32:18
Eccentricity: 0.0142243
inclination: 98.1422°
perigee height: 704 km
apogee height: 909 km
right ascension of ascending node: 314.2335°
argument of perigee: 183.6602°
revolutions per day: 14.25511798
mean anomaly at epoch: 238.6941°
orbit number at epoch: 55194

The dashed part of the orbit path shows where the satellite is in the earth's shadow,  

DLR